Visibility
15.0 15.0 15.0 15.0 15.0 15.0 15.0 15.0 15.0 15.0 15.0 15.0 15.0 15.0 15.0 15.0 15.0 15.0 15.0 15.0 15.0 15.0 15.0 15.0 15.0 15.0 15.0
15.0 15.0 15.0 15.0 15.0 15.0 15.0 15.0 15.0 15.0 15.0 15.0 15.0 15.0 15.0 15.0 15.0 15.0 15.0 15.0 15.0 15.0 15.0 15.0 15.0 15.0 15.0
15.0 15.0 15.0 15.0 15.0 15.0 15.0 15.0 15.0 15.0 15.0 15.0 15.0 15.0 15.0 15.0 15.0 15.0 15.0 15.0 15.0 15.0 15.0 15.0 15.0 15.0 15.0
15.0 15.0 15.0 15.0 15.0 15.0 15.0 15.0 15.0 15.0 15.0 15.0 15.0 15.0 15.0 15.0 15.0 15.0 15.0 15.0 15.0 15.0 15.0 15.0 15.0 15.0 15.0
15.0 15.0 15.0 15.0 15.0 15.0 15.0 15.0 15.0 15.0 15.0 15.0 15.0 15.0 15.0 15.0 15.0 15.0 15.0 15.0 15.0 15.0 15.0 15.0 15.0 15.0 15.0
15.0 15.0 15.0 15.0 15.0 15.0 15.0 15.0 15.0 15.0 15.0 15.0 15.0 15.0 15.0 15.0 15.0 15.0 15.0 15.0 15.0 15.0 15.0 15.0 15.0 15.0 15.0
15.0 15.0 15.0 15.0 15.0 15.0 15.0 15.0 15.0 15.0 15.0 15.0 15.0 15.0 15.0 15.0 15.0 15.0 15.0 15.0 15.0 15.0 15.0 15.0 15.0 15.0 15.0
15.0 15.0 15.0 15.0 15.0 15.0 15.0 15.0 15.0 15.0 15.0 5.1 15.0 15.0 15.0 15.0 15.0 15.0 15.0 15.0 15.0 15.0 15.0 15.0 15.0 15.0 15.0
15.0 15.0 15.0 15.0 15.0 13.8 15.0 14.9 15.0 15.0 15.0 15.0 15.0 15.0 15.0 15.0 15.0 15.0 15.0 15.0 15.0 15.0 15.0 15.0 15.0 15.0 15.0
15.0 15.0 15.0 15.0 15.0 15.0 15.0 3.8 14.9 13.1 15.0 14.9 15.0 15.0 14.1 15.0 15.0 15.0 15.0 15.0 15.0 15.0 15.0 15.0 15.0 15.0 15.0
15.0 15.0 15.0 15.0 15.0 15.0 15.0 15.0 14.0 15.0 15.0 15.0 15.0 15.0 6.9 15.0 15.0 15.0 15.0 15.0 15.0 15.0 14.5 15.0 15.0 8.5 15.0
15.0 15.0 15.0 15.0 15.0 15.0 15.0 15.0 15.0 15.0 15.0 14.7 0.0 2.4 7.2 7.5 5.9 15.0 15.0 15.0 15.0 15.0 15.0 14.8 7.5 15.0 15.0
15.0 15.0 15.0 15.0 15.0 15.0 15.0 15.0 15.0 15.0 15.0 15.0 0.2 1.1 9.7 2.7 8.5 5.7 12.7 0.4 15.0 15.0 15.0 13.9 9.7 15.0 15.0
13.3 9.7 15.0 2.5 13.9 14.9 5.5 15.0 15.0 15.0 15.0 15.0 15.0 4.3 0.0 0.1 0.0 5.8 1.1 0.1 1.9 15.0 9.7 13.7 9.0 15.0 15.0
15.0 15.0 15.0 15.0 11.0 13.6 7.2 9.9 5.5 9.5 15.0 14.9 15.0 0.5 0.2 0.0 0.0 0.0 0.0 0.1 1.4 15.0 15.0 15.0 15.0 15.0 15.0
14.4 15.0 14.3 12.6 4.6 12.4 15.0 12.0 8.6 13.7 15.0 14.8 0.4 13.4 10.6 0.4 0.0 0.1 0.0 0.1 0.1 0.0 0.1 0.2 15.0 15.0 15.0
15.0 14.8 1.1 1.5 1.8 0.8 5.7 8.5 12.3 14.9 15.0 15.0 8.9 12.5 0.4 1.4 15.0 7.1 0.1 0.3 2.0 0.2 14.2 13.2 15.0 15.0 15.0